[[{"header":{"parameterUnit":"m.s-1","parameterCategory":1,"la1":30.2992,"la2":30.254,"lo1":-89.0895,"lo2":-89.0443,"dy":0.0025,"dx":0.0025,"nx":19,"ny":19,"refTime":"2026-03-08T09:00:00:Z","depth":0,"parameterNumber":2,"parameterNumberName":"U-component_of_WINDS"},"data":[0,0,0,0.3596,0.3597,0.363,0.363,0.3679,0.3679,0,0,0,0,0,0,0,0,0,0,0,0.3589,0.359,0.3596,0.3597,0.363,0.363,0.3679,0.3679,0,0,0,0,0,0,0,0,0,0,0,0.3589,0.359,0.359,0.3597,0.363,0.363,0.3679,0.3652,0,0,0,0,0,0,0,0,0,0,0.3619,0.3615,0.3589,0.359,0.3598,0.363,0.363,0.365,0.3654,0.3666,0,0.3678,0,0.3679,0.3683,0.3683,0,0,0,0.3596,0.3612,0.3618,0.359,0.3598,0.363,0.3615,0.3652,0.3656,0.3671,0.3678,0.368,0.368,0.3683,0.3684,0.3762,0.3762,0,0,0.3594,0.3597,0.3616,0.3621,0.3615,0.3614,0.3616,0.3654,0.3663,0.3678,0.3681,0.3681,0.3684,0.3684,0.3761,0.3762,0,0,0,0.359,0.3596,0.3601,0.3619,0.3624,0.3615,0.3617,0.3661,0.3663,0.3681,0.3681,0.3684,0.3685,0.3761,0.3761,0.3787,0,0,0,0.3588,0.3593,0.36,0.3603,0.3624,0.3643,0.3624,0.366,0.3664,0.3681,0.3684,0.3685,0.376,0.3761,0.3785,0.3798,0,0,0,0.3586,0.3593,0.3599,0.3603,0.3617,0.3642,0.3646,0.3661,0.3665,0.3683,0.3685,0.376,0.3761,0.3783,0.3796,0.382,0,0,0,0.3585,0.362,0.3599,0.3639,0.3617,0.3657,0.3645,0.3676,0.3695,0.3684,0.376,0.3761,0.3783,0.3794,0.3819,0.3842,0.3852,0,0,0.3632,0.3626,0.3649,0.3631,0.3676,0.3652,0.3701,0.3716,0.3715,0.3747,0.3748,0.3785,0.3795,0.382,0.3905,0.3912,0,0,0,0.3665,0.3682,0.3693,0.3711,0.3723,0.3734,0.3741,0.3747,0.3773,0.3731,0.3801,0.3806,0.3821,0.3832,0.3839,0.3851,0.3766,0.3766,0.3766,0.3736,0.3733,0.3771,0.3772,0.379,0.3797,0.3811,0.382,0.3812,0.3828,0.3838,0.389,0.3903,0.3908,0.3921,0.3849,0.385,0.385,0.385,0.3804,0.3828,0.3816,0.3849,0.3846,0.3874,0.3883,0.3876,0.3903,0.3882,0.3894,0.3872,0.3916,0.3928,0.3852,0.3851,0.3851,0.3851,0.3851,0.3851,0.3862,0.3867,0.3894,0.3915,0.3915,0.3941,0.3937,0.3934,0.3946,0.3957,0.3956,0.3956,0.3951,0.3952,0.3952,0.3952,0.3952,0.3952,0.3897,0.3903,0.3925,0.3941,0.3952,0.3967,0.3975,0.3987,0.3999,0.3994,0.3994,0.3986,0.3921,0.3905,0.3955,0.3954,0.3954,0.3954,0.3954,0.3968,0.3952,0.3986,0.3997,0.4017,0.4038,0.4033,0.4058,0.4067,0.408,0.4069,0.4021,0.4016,0.401,0.3997,0.4068,0.4068,0.4068,0.4068,0.4008,0.4005,0.4039,0.4058,0.4077,0.4076,0.4116,0.4123,0.4128,0.4134,0.4123,0.4106,0.41,0.4098,0.4091,0.4079,0.4169,0.4169,0.4169,0.4053,0.4051,0.4085,0.4089,0.4104,0.4117,0.4156,0.4179,0.4181,0.4173,0.4139,0.4135,0.4106,0.4097,0.4088,0.4077,0.4055,0,0]},{"header":{"parameterUnit":"m.s-1","parameterCategory":1,"la1":30.2992,"la2":30.254,"lo1":-89.0895,"lo2":-89.0443,"dy":0.0025,"dx":0.0025,"nx":19,"ny":19,"refTime":"2026-03-08T09:00:00:Z","depth":0,"parameterNumber":3,"parameterNumberName":"V-component_of_WINDS"},"data":[0,0,0,1.6747,1.6748,1.6781,1.6781,1.6823,1.6824,0,0,0,0,0,0,0,0,0,0,0,1.6737,1.6737,1.6747,1.6748,1.6781,1.6781,1.6823,1.6824,0,0,0,0,0,0,0,0,0,0,0,1.6737,1.6737,1.6737,1.6748,1.6781,1.6781,1.6823,1.6798,0,0,0,0,0,0,0,0,0,0,1.6766,1.6756,1.6737,1.6737,1.6748,1.6781,1.6781,1.6797,1.68,1.6808,0,1.6815,0,1.682,1.6826,1.6826,0,0,0,1.6748,1.6754,1.6763,1.6737,1.6748,1.6781,1.6766,1.6798,1.6802,1.6812,1.6816,1.6817,1.6821,1.6827,1.6827,1.6876,1.6876,0,0,1.6746,1.6742,1.6761,1.6765,1.676,1.6765,1.6767,1.68,1.6805,1.6816,1.6818,1.6822,1.6827,1.6827,1.6876,1.6876,0,0,0,1.6741,1.6741,1.675,1.6763,1.677,1.6766,1.6768,1.6803,1.6806,1.6819,1.6822,1.6827,1.6828,1.6875,1.6876,1.6884,0,0,0,1.674,1.6738,1.6749,1.6747,1.6769,1.6787,1.6771,1.6804,1.6808,1.6822,1.6827,1.6828,1.6875,1.6876,1.6884,1.6889,0,0,0,1.6735,1.6738,1.6742,1.6747,1.6761,1.6786,1.6791,1.6805,1.681,1.6827,1.6828,1.6875,1.6876,1.6883,1.6888,1.6902,0,0,0,1.6728,1.6748,1.6742,1.6766,1.6761,1.6791,1.6791,1.6814,1.6829,1.6827,1.6875,1.6876,1.6883,1.6887,1.6901,1.6913,1.6918,0,0,1.6752,1.6751,1.6765,1.6761,1.6792,1.6787,1.6819,1.6836,1.684,1.6864,1.6865,1.6884,1.6888,1.6902,1.6944,1.6948,0,0,0,1.6772,1.6782,1.6791,1.6806,1.682,1.6833,1.6845,1.6852,1.6872,1.6851,1.6892,1.6895,1.6903,1.6909,1.6912,1.692,1.6878,1.6878,1.6878,1.6799,1.6805,1.6829,1.6839,1.6854,1.6868,1.688,1.6891,1.6891,1.6901,1.6908,1.6933,1.694,1.6943,1.6951,1.6914,1.6915,1.6915,1.6915,1.6835,1.6851,1.6852,1.6876,1.6882,1.6903,1.6917,1.6917,1.6937,1.6928,1.6935,1.6926,1.6946,1.6954,1.6915,1.6915,1.6915,1.6915,1.6915,1.6854,1.6863,1.6871,1.6894,1.6912,1.6921,1.6941,1.6945,1.6949,1.6956,1.6965,1.6965,1.6966,1.696,1.696,1.696,1.696,1.6961,1.6961,1.6871,1.688,1.6896,1.6914,1.6925,1.694,1.6955,1.6966,1.6979,1.6981,1.6981,1.6981,1.6947,1.6939,1.6962,1.6962,1.6962,1.6961,1.6961,1.6905,1.6898,1.6924,1.6935,1.6957,1.6975,1.698,1.7003,1.7012,1.7022,1.7021,1.6995,1.6995,1.6992,1.6986,1.7019,1.7019,1.7019,1.7019,1.6922,1.6922,1.695,1.6968,1.6986,1.6994,1.7023,1.7036,1.7047,1.7053,1.7049,1.7041,1.7038,1.7039,1.7035,1.7029,1.7073,1.7073,1.7073,1.6944,1.6947,1.6971,1.6982,1.7,1.7016,1.7044,1.7065,1.7076,1.7076,1.7059,1.7057,1.7043,1.7038,1.7037,1.7032,1.7021,0,0]}]]